Farmville, Virginia, United States (23901)
Lat: 37.30N, Lon: 78.39W
Wx Zone: VAZ060
Local Info
Past Weather Observations for Today

NOTE: This archive is for the closest National Weather Service station to Farmville. Information may differ from the station used for current weather conditions.

Click here for Long-term Archive

Time Weather Temperature Dewpoint Humidity Pressure Winds Precip Visibility
11:55
Overcast
Light Rain
43°F / 6°C 43°F / 6°C 100% 29.83 in
(1010 mb)
NE 6.9 mph
(NE 11 kph)
0.03 in
(0.76 mm)
10SM
11:35
Overcast
Rain
43°F / 6°C 43°F / 6°C 100% 29.83 in
(1010 mb)
NE 5.8 mph
(NE 9 kph)
0.02 in
(0.51 mm)
10SM
11:15
Overcast
Light Rain
43°F / 6°C 43°F / 6°C 100% 29.83 in
(1010 mb)
NE 9.2 mph
(NE 15 kph)
0.01 in
(0.25 mm)
10SM
10:55
Overcast
Rain
43°F / 6°C 43°F / 6°C 100% 29.83 in
(1010 mb)
ENE 8.1 mph
(ENE 13 kph)
0.09 in
(2.29 mm)
10SM
10:35
Overcast
Light Rain
43°F / 6°C 43°F / 6°C 100% 29.83 in
(1010 mb)
ENE 4.6 mph
(ENE 7 kph)
0.08 in
(2.03 mm)
10SM
10:15
Overcast
Rain
43°F / 6°C 43°F / 6°C 100% 29.83 in
(1010 mb)
NE 8.1 mph
(NE 13 kph)
0.05 in
(1.27 mm)
7SM
09:55
Overcast
Rain
43°F / 6°C 43°F / 6°C 100% 29.83 in
(1010 mb)
NNE 5.8 mph
(NNE 9 kph)
0.13 in
(3.30 mm)
4SM
09:35
Overcast
Rain
43°F / 6°C 43°F / 6°C 100% 29.83 in
(1010 mb)
N 4.6 mph
(N 7 kph)
0.06 in
(1.52 mm)
7SM
09:15
Overcast
Rain
43°F / 6°C 43°F / 6°C 100% 29.8 in
(1009 mb)
NE 8.1 mph
(NE 13 kph)
0.01 in
(0.25 mm)
10SM
08:55
Overcast
Light Rain
45°F / 7°C 45°F / 7°C 100% 29.77 in
(1008 mb)
NE 11.5 mph
(NE 19 kph)
0.08 in
(2.03 mm)
7SM
08:35
Overcast
Light Rain
45°F / 7°C 45°F / 7°C 100% 29.8 in
(1009 mb)
NE 8.1 mph
(NE 13 kph)
0.06 in
(1.52 mm)
10SM
08:15
Overcast
Rain
45°F / 7°C 45°F / 7°C 100% 29.77 in
(1008 mb)
NE 12.7 mph
(NE 20 kph)
0.04 in
(1.02 mm)
7SM
07:55
Overcast
Rain
45°F / 7°C 45°F / 7°C 100% 29.8 in
(1009 mb)
NE 11.5 mph
(NE 19 kph)
0.06 in
(1.52 mm)
10SM
07:35
Overcast
Rain
46°F / 8°C 46°F / 8°C 100% 29.77 in
(1008 mb)
NE 11.5 mph
(NE 19 kph)
0.03 in
(0.76 mm)
7SM
07:15
Overcast
Light Rain
46°F / 8°C 46°F / 8°C 100% 29.77 in
(1008 mb)
NE 9.2 mph
(NE 15 kph)
0.01 in
(0.25 mm)
7SM
06:55
Overcast
Drizzle
46°F / 8°C 46°F / 8°C 100% 29.77 in
(1008 mb)
NNE 10.4 mph
(NNE 17 kph)
0.04 in
(1.02 mm)
10SM
06:35
Overcast
Rain
46°F / 8°C 46°F / 8°C 100% 29.77 in
(1008 mb)
NE 10.4 mph
(NE 17 kph)
0.03 in
(0.76 mm)
10SM
06:15
Overcast
Light Rain
46°F / 8°C 46°F / 8°C 100% 29.77 in
(1008 mb)
NNE 10.4 mph
(NNE 17 kph)
0.01 in
(0.25 mm)
10SM
05:55
Overcast
Light Rain
46°F / 8°C 46°F / 8°C 100% 29.77 in
(1008 mb)
NE 11.5 mph
(NE 19 kph)
0.01 in
(0.25 mm)
7SM
05:35
Overcast
Light Rain
46°F / 8°C 46°F / 8°C 100% 29.77 in
(1008 mb)
NNE 8.1 mph
(NNE 13 kph)
- 7SM
05:15
Overcast
Drizzle
46°F / 8°C 46°F / 8°C 100% 29.74 in
(1007 mb)
NE 11.5 mph
(NE 19 kph)
- 7SM
04:55
Overcast
Rain
46°F / 8°C 46°F / 8°C 100% 29.74 in
(1007 mb)
NNE 10.4 mph
(NNE 17 kph)
0.02 in
(0.51 mm)
7SM
04:35
Overcast
Drizzle
48°F / 9°C 48°F / 9°C 100% 29.74 in
(1007 mb)
NNE 9.2 mph
(NNE 15 kph)
0.01 in
(0.25 mm)
10SM
04:15
Overcast
Light Rain
48°F / 9°C 48°F / 9°C 100% 29.74 in
(1007 mb)
NE 9.2 mph
(NE 15 kph)
0.01 in
(0.25 mm)
7SM
03:55
Overcast
Rain
48°F / 9°C 48°F / 9°C 100% 29.74 in
(1007 mb)
NE 10.4 mph
(NE 17 kph)
0.02 in
(0.51 mm)
7SM
03:35
Overcast
Light Rain
48°F / 9°C 48°F / 9°C 100% 29.77 in
(1008 mb)
NE 11.5 mph
(NE 19 kph)
0.02 in
(0.51 mm)
7SM
03:15
Overcast
Drizzle
48°F / 9°C 48°F / 9°C 100% 29.77 in
(1008 mb)
NNE 8.1 mph
(NNE 13 kph)
- 7SM
02:55
Overcast
50°F / 10°C 46°F / 8°C 88% 29.74 in
(1007 mb)
NNE 11.5 mph
(NNE 19 kph)
- 10SM
02:35
Overcast
Drizzle
50°F / 10°C 45°F / 7°C 82% 29.74 in
(1007 mb)
NE 18.4 mph
(NE 30 kph)
- 10SM
02:15
Overcast
Drizzle
52°F / 11°C 48°F / 9°C 88% 29.74 in
(1007 mb)
NE 17.3 mph
(NE 28 kph)
- 10SM
01:55
Overcast
Light Rain
54°F / 12°C 48°F / 9°C 82% 29.71 in
(1006 mb)
NNE 12.7 mph
(NNE 20 kph)
- 10SM
01:35
Overcast
Light Rain
57°F / 14°C 50°F / 10°C 77% 29.71 in
(1006 mb)
NNE 19.6 mph
(NNE 32 kph)
- 10SM
01:15
Overcast
63°F / 17°C 55°F / 13°C 77% 29.68 in
(1005 mb)
NNE 6.9 mph
(NNE 11 kph)
- 10SM
00:55
Overcast
63°F / 17°C 55°F / 13°C 77% 29.68 in
(1005 mb)
NNE 9.2 mph
(NNE 15 kph)
- 10SM
00:35
Overcast
64°F / 18°C 55°F / 13°C 73% 29.68 in
(1005 mb)
NW 3.5 mph
(NW 6 kph)
- 10SM
00:15
Overcast
64°F / 18°C 55°F / 13°C 73% 29.68 in
(1005 mb)
N 3.5 mph
(N 6 kph)
- 10SM
Time Weather Temperature Dewpoint Humidity Pressure Winds Precip Visibility


Weather for websites

WeatherForYou.com, LLC is not responsible for any damages or problems caused by this service. Current weather conditions are obtained from the closest station including government and personal stations which may have varying degrees of accuracy. Weather forecasts are derived from the NOAA NDFD. Like all things, this site belongs to Jesus Christ... He just trusts me to maintain it. If you have any questions or comments email webmaster@weatherforyou.com

Copyright © 2015, WeatherForYou.com LLC. All rights reserved.